Location: Newark
(48.8833°N, 0.9236°W)
Time: 21:40:08
(UTC+00:00)

Tiros 1 despin weight - Pass Details

Date: 18 November 2019
Orbit: 594 x 642 km, 48.2° (Epoch: 10 December)

Event Time Altitude Azimuth Distance (km) Brightness Sun altitude
Rises 13:56:48 0° 228° (SW) 2,820 ? 16.2°
Reaches altitude 10° 13:59:10 10° 221° (SW) 1,922 ? 16.0°
Maximum altitude 14:03:15 38° 153° (SSE) 911 ? 15.6°
Drops below altitude 10° 14:07:23 10° 85° (E) 1,945 ? 15.2°
Sets 14:09:48 0° 77° (ENE) 2,857 ? 15.0°
